Regional Weather Roundup
Issued by NWS

Home | Current Version | Previous Version | Text Only | Print | Product List | Glossary On
Versions: 1 2 3 4 5 6 7 8 9 10 11 12 13 14 15 16 17 18 19 20 21 22 23 24 25 26 27 28 29 30 31 32 33 34 35 36 37 38 39 40 41 42 43 44 45 46 47 48 49 50
000
ASUS45 KSLC 300910
RWRUT

UTAH REGIONAL WEATHER ROUNDUP
NATIONAL WEATHER SERVICE SALT LAKE CITY UT
300 AM MDT THU JUL 30 2015

UTZ001>011-023>025-301000-

NORTHERN UTAH

CITY           SKY/WX    TMP DP  RH WIND       PRES   REMARKS
BRIGHAM CITY   CLEAR     57  35  43 CALM      30.26S
HILL AFB       CLEAR     63  31  31 E21       30.28R
LOGAN          CLEAR     51  38  60 CALM      30.30R
OGDEN          CLEAR     65  31  28 E3        30.25S
PROVO AIRPORT  CLEAR     59  32  36 SE5       30.27F
SALT LAKE CITY PTCLDY    64  38  38 SE5       30.25R
VERNAL         CLEAR     58  31  35 W6        30.30R
WENDOVER       CLEAR     66  30  26 W3        30.25S
HEBER CITY     CLEAR     45  34  65 SE3       30.37F
WEST JORDAN    CLEAR     59  34  38 CALM      30.27S

$$

UTZ012>022-026-027-301000-

SOUTHERN/CENTRAL UTAH

CITY           SKY/WX    TMP DP  RH WIND       PRES   REMARKS
BLANDING       PTCLDY    64  44  48 N8        30.41F
BRYCE CANYON   PTCLDY    48  29  47 W6        30.46S
CEDAR CITY     PTCLDY    62  23  22 N7        30.27R
DELTA          CLEAR     64  27  24 N7        30.24S
HANKSVILLE     PTCLDY    61  27  27 E3        30.22R
MILFORD        PTCLDY    61  18  18 CALM      30.24S
MOAB/CYNLANDS  CLEAR     65  23  20 CALM      30.19S
PRICE          CLEAR     60  19  20 N8        30.32S
ST GEORGE      SUNNY     82  34  17 CALM      30.07S
KANAB          CLEAR     72  36  26 N6        30.28R

$$

REGIONAL REPORTS     COLORADO/ARIZONA

CITY           SKY/WX    TMP DP  RH WIND       PRES   REMARKS
CRAIG, CO      CLEAR     43  32  65 SE3       30.39S
GRAND JUNCTION MOCLDY    65  28  24 E3        30.24R
RIFLE          PTCLDY    57  29  34 E5        30.34R
MONTROSE       PTCLDY    61  33  35 SE9       30.34S
CORTEZ         CLEAR     59  46  62 E7        30.36S
PAGE, AZ       PTCLDY    76  55  48 SE6       30.20S
GRAND CANYON   PTCLDY    56  47  71 NE5       30.38S
KINGMAN        CLOUDY    81  57  43 CALM      30.12R
FLAGSTAFF      PTCLDY    56  51  84 CALM      30.40F

$$

REGIONAL REPORTS    NEVADA/IDAHO/WYOMING

CITY           SKY/WX    TMP DP  RH WIND       PRES   REMARKS
LAS VEGAS, NV  CLOUDY    92  50  23 SW6       29.94S
ELY            CLEAR     52  23  32 S7        30.36S
ELKO           CLEAR     51  30  44 CALM      30.28S
POCATELLO, ID  CLEAR     47  41  80 CALM      30.29S
BURLEY         CLEAR     53  41  63 CALM      30.25R
EVANSTON, WY   CLEAR     53  25  33 S7        30.45F
ROCK SPRINGS   CLEAR     54  21  27 W8        30.42R
KEMMERER       CLEAR     46  32  57 N10       30.47R

$$



USA.gov is the U.S. government's official web portal to all federal, state and local government web resources and services.